Home > Weather > Voronezh > Past weeks

Flag for Russia Weather for the Past 2 Weeks in Voronezh, Russia

Now
32 °F

Chilly.


Feels Like: 21 °F
Forecast: 30 / 33 °F
Wind: 17 mph from Southeast

Location: Voronez

Current Time: Feb 12, 2016 at 9:46:43 AM

Latest Report: Feb 12, 2016 at 9:00 AM


Visibility: 1 mi

Pressure: 29.95 "Hg

Humidity: 93%

Dew point: 30 °F

Location of VoronezhLocation

Historic Weather in Voronezh — Graph

°F

Voronezh Temperature Yesterday

Maximum temperature yesterday: 36 °F (at 1:30 PM)
Minimum temperature yesterday: 30 °F (at 12:00 AM)
Average temperature yesterday: 33 °F

High & Low Weather Summary for the Past Weeks

 TemperatureHumidityPressure
High37 °F (Jan 29, 5:00 AM)100% (Jan 28, 10:00 AM)30.39 "Hg (Jan 28, 10:00 AM)
Low18 °F (Feb 7, 6:00 AM)55% (Feb 7, 12:30 PM)29.50 "Hg (Feb 1, 3:30 AM)
Average32 °F83%29.97 "Hg
* Reported Jan 28 8:00 AM — Feb 12 8:30 AM, Voronezh, Weather by CustomWeather, © 2016

Note: Actual official high and low records may vary slightly from our data, if they occured in-between our weather recording intervals... More about our weather records

Advertising

Voronezh Weather History for the Previous 24 Hours

 ConditionsComfort  
Time TempWeatherWind HumidityBarometerVisibility
8:30 AM
Fri, Feb 12
32 °FChilly.17 mph93%29.95 "Hg1 mi
8:00 AM32 °FChilly.17 mph93%29.95 "Hg1 mi
7:30 AM32 °FChilly.17 mph93%29.95 "Hg1 mi
7:00 AM32 °FHeavy snow. Dense fog.20 mph93%29.95 "Hg1 mi
6:30 AM32 °FLight snow. Low clouds.20 mph93%29.95 "Hg1 mi
6:00 AM34 °FOvercast.17 mph87%29.95 "HgN/A
5:00 AM34 °FOvercast.22 mph81%29.95 "HgN/A
4:30 AM34 °FOvercast.20 mph81%29.95 "HgN/A
4:00 AM34 °FOvercast.22 mph81%29.98 "HgN/A
3:30 AM34 °FOvercast.22 mph81%29.98 "HgN/A
3:00 AM34 °FOvercast.24 mph81%29.98 "HgN/A
2:30 AM34 °FOvercast.24 mph81%29.98 "HgN/A
2:00 AM34 °FOvercast.22 mph81%29.98 "HgN/A
12:00 AM34 °FOvercast.24 mph75%30.01 "HgN/A
11:30 PM
Thu, Feb 11
34 °FOvercast.24 mph81%30.01 "HgN/A
11:00 PM34 °FOvercast.20 mph81%30.01 "HgN/A
10:30 PM34 °FPassing clouds.20 mph81%30.01 "HgN/A
10:00 PM34 °FPassing clouds.24 mph81%30.01 "HgN/A
9:30 PM36 °FPassing clouds.24 mph75%30.01 "HgN/A
9:00 PM36 °FPassing clouds.22 mph75%30.04 "HgN/A
8:30 PM36 °FPassing clouds.24 mph75%30.04 "HgN/A
8:00 PM36 °FPassing clouds.24 mph75%30.04 "HgN/A
7:30 PM36 °FPassing clouds.24 mph75%30.04 "HgN/A
7:00 PM36 °FPassing clouds.24 mph70%30.04 "HgN/A
6:30 PM36 °FPassing clouds.24 mph75%30.04 "HgN/A
6:00 PM34 °FPartly sunny.26 mph81%30.04 "HgN/A
5:30 PM34 °FPartly sunny.24 mph81%30.04 "HgN/A
5:00 PM34 °FPartly sunny.24 mph81%30.04 "HgN/A
4:30 PM34 °FPartly sunny.22 mph81%30.04 "HgN/A
4:00 PM34 °FPartly sunny.24 mph81%30.07 "HgN/A
3:30 PM34 °FPartly sunny.22 mph81%30.07 "HgN/A
3:00 PM36 °FPartly sunny.24 mph70%30.07 "HgN/A
2:30 PM36 °FPartly sunny.26 mph70%30.07 "HgN/A
2:00 PM36 °FPartly sunny.24 mph70%30.07 "HgN/A
1:30 PM36 °FPartly sunny.24 mph70%30.09 "HgN/A
1:00 PM34 °FPartly sunny.22 mph75%30.09 "HgN/A
12:30 PM34 °FPartly sunny.24 mph70%30.09 "HgN/A
12:00 PM34 °FOvercast.22 mph70%30.12 "HgN/A
11:30 AM34 °FOvercast.20 mph70%30.15 "HgN/A
11:00 AM32 °FOvercast.20 mph75%30.15 "HgN/A
10:30 AM32 °FOvercast.20 mph75%30.15 "HgN/A
10:00 AM32 °FOvercast.20 mph75%30.15 "HgN/A
9:30 AM32 °FOvercast.20 mph75%30.15 "HgN/A
9:00 AM32 °FOvercast.20 mph75%30.18 "HgN/A
Weather by CustomWeather, © 2016

See weather overviewHow to use our weather pages